This is the latest recevied weather packets stored in our database for station/object SQ5DCP-1. If no packets are shown the sender has not sent any weather packets the latest 10 day(s).
| Time | Temp. | Humidity | Pressure | Rain* | Wind** | Luminosity | Snow |
|---|---|---|---|---|---|---|---|
| 1777918528 | 22.78° C | 36% | 1012.1 hPa | 0 mm | - | - | - |
| 1777916130 | 24.44° C | 32% | 1011.9 hPa | 0 mm | - | - | - |
| 1777915828 | 25° C | 31% | 1012 hPa | 0 mm | - | - | - |
| 1777915526 | 25° C | 31% | 1012 hPa | 0 mm | - | - | - |
| 1777914319 | 25.56° C | 29% | 1011.9 hPa | 0 mm | - | - | - |
| 1777914048 | 25.56° C | 28% | 1012 hPa | 0 mm | - | - | - |
| 1777914016 | 25.56° C | 28% | 1012 hPa | 0 mm | - | - | - |
| 1777913131 | 26.11° C | 27% | 1012 hPa | 0 mm | - | - | - |
| 1777910736 | 26.11° C | 28% | 1012.1 hPa | 0 mm | - | - | - |
| 1777897242 | 26.11° C | 29% | 1014.2 hPa | 0 mm | - | - | - |
| 1777896642 | 26.11° C | 29% | 1014.2 hPa | 0 mm | - | - | - |
| 1777896045 | 26.11° C | 29% | 1014.2 hPa | 0 mm | - | - | - |
| 1777894243 | 26.11° C | 29% | 1014.2 hPa | 0 mm | - | - | - |
| 1777893643 | 26.11° C | 29% | 1014.2 hPa | 0 mm | - | - | - |
| 1777893042 | 26.11° C | 29% | 1014.2 hPa | 0 mm | - | - | - |
| 1777892443 | 26.11° C | 29% | 1014.2 hPa | 0 mm | - | - | - |
| 1777892133 | 26.11° C | 29% | 1014.2 hPa | 0 mm | - | - | - |
| 1777891832 | 26.11° C | 29% | 1014.3 hPa | 0 mm | - | - | - |
| 1777891228 | 26.11° C | 29% | 1014.3 hPa | 0 mm | - | - | - |
| 1777890322 | 25.56° C | 30% | 1014.6 hPa | 0 mm | - | - | - |
| 1777890021 | 25.56° C | 30% | 1014.6 hPa | 0 mm | - | - | - |
| 1777889717 | 25.56° C | 30% | 1014.7 hPa | 0 mm | - | - | - |
| 1777889416 | 25.56° C | 30% | 1014.7 hPa | 0 mm | - | - | - |
| 1777889134 | 25° C | 30% | 1014.9 hPa | 0 mm | - | - | - |
| 1777888832 | 25° C | 30% | 1014.9 hPa | 0 mm | - | - | - |
* Rain latest hour (hover to see other rain measurements)
** Current wind speed in m/s (hover to see current wind gust speed)